CW0630 Weather Reports


Display with metric or nautical units.
time (UTC)temp
F
wind
direction
speed
MPH
gust
MPH
rain 1hr
in
rain 24hr
in
rain mn
in
humidity
%
barometer
mb
20260901201028 93 360 2.0 3.0 0.00 0.00 0.00 56 1016.0
20260901191015 95 10 2.0 4.0 0.00 0.00 0.00 50 1016.4
20260901181018 95 349 0.0 0.0 0.00 0.00 0.00 52 1016.6
20260901171043 94 316 3.0 3.0 0.00 0.00 0.00 55 1016.8
20260901161021 93 286 0.0 0.0 0.00 0.00 0.00 59 1017.7
20260901151021 92 215 4.0 4.0 0.00 0.00 0.00 65 1018.0
20260901141033 88 175 0.0 0.0 0.00 0.00 0.00 69 1018.0
20260901131019 84 205 0.0 0.0 0.00 0.00 0.00 75 1018.2
20260901121039 77 190 0.0 0.0 0.00 0.00 0.00 91 1018.2
20260901111046 74 189 0.0 0.0 0.00 0.00 0.00 93 1017.8
20260901101047 74 189 0.0 0.0 0.00 0.00 0.00 93 1017.7
20260901091018 74 174 0.0 0.0 0.00 0.00 0.00 92 1017.7
20260901081014 74 173 0.0 0.0 0.00 0.00 0.00 92 1017.7
20260901071025 74 173 0.0 0.0 0.00 0.00 0.00 91 1018.0
20260901061019 75 173 0.0 0.0 0.00 0.00 0.00 91 1018.4
20260901051029 76 173 0.0 0.0 0.00 0.00 0.00 88 1018.8
20260901041026 78 173 0.0 0.0 0.00 0.00 0.00 83 1018.8
20260901031020 79 159 2.0 2.0 0.00 0.00 0.00 81 1018.7
20260901021015 81 126 0.0 3.0 0.00 0.00 0.00 77 1018.9
20260901011024 82 63 0.0 1.0 0.00 0.00 0.00 74 1018.7
20260901001015 84 355 0.0 0.0 0.00 0.00 0.00 73 1018.3
20260831231011 84 360 2.0 2.0 0.00 0.00 0.00 71 1018.2
20260831221026 86 355 0.0 2.0 0.00 0.00 0.00 64 1018.2
20260831211051 90 67 2.0 2.0 0.00 0.00 0.00 55 1017.8